Location: *
(38.9800°N, 16.0500°E)
Time: 20:15:30
(UTC+00:00)

Cosmos 1980 - Pass Details

Date: 07 April 2020
Orbit: 840 x 846 km, 71.0° (Epoch: 23 May)

Event Time Altitude Azimuth Distance (km) Brightness Sun altitude
Rises 01:26:30 0° 339° (NNW) 3,409 7.1 -32.6°
Reaches altitude 10° 01:28:58 10° 341° (NNW) 2,470 6.4 -32.3°
Enters shadow 01:33:02 47° 357° (N) 1,102 4.4 -31.7°
